Weather in Monteverde

Costa Rica     10°18′02″N   84°47′58″W
temp.,
°C
wind,
m/s
gust,
m/s
humid.,
%
clouds,
%
prec.,
mm/h
press.,
hPa
HPBL,
m
12 april, mon
mon1200:00+20nne0094100 0.4 101113
03:00+20n1195100 0.0 100919
06:00+20ne229482 0.0 101193
09:00+25ene127026 0.1 1012891
12:00+25nne117151 1.7 1011652
15:00+25nne237032 7.6 1008784
18:00+21ne249015 9.3 1010137
21:00+20ne3495100 0.1 1012157
13 april, tue
tue1300:00+20ne3493100 0.2 1012143
03:00+19ne2293100 0.0 101060
06:00+20ne2393100 0.0 1012108
09:00+25ene126923 0.0 1013931
12:00+27ene135659 0.2 10111515
15:00+24ne237699 2.7 1010434
18:00+21ne359398 5.1 1012263
21:00+20ne3592100 0.1 1014279
14 april, wed
wed1400:00+20ne359298 0.3 1013252
03:00+19ne359453 0.1 1012239
06:00+20ne359384 0.2 1013355
09:00+22ne358265 0.1 1015540
12:00+26ne346722 0.9 10121093
15:00+24nne337634 2.9 1011733
18:00+21ne359153 4.2 1012270
21:00+20ne349198 0.1 1013249
15 april, thu
thu1500:00+20ne349378 0.3 1012215
03:00+19ne349242 0.1 1011160
06:00+20ne349464 0.2 1012212
09:00+23ne248158 0.2 1014551
12:00+25ne2271100 2.9 1011881
15:00+24ne237597 6.6 1009703
18:00+21ne3492100 10.8 1011226
21:00+20ene2393100 0.1 1013149
16 april, fri
fri1600:00+19ene1193100 0.1 101332
03:00+19ne119122 0.0 101118
06:00+19ne2391100 0.0 101274
09:00+24nne227173 0.0 1013830
12:00+26s1165100 1.1 1010743
15:00+24wsw017845 5.3 1009388
18:00+21nne119299 12.6 101160
21:00+20ne2294100 3.3 101398